Location: Newark
(58.8333°N, 23.5833°E)
Time: 20:52:25
(UTC+00:00)

Explorer 7 - All Passes

Search period start: 16 November 2019 00:00
Search period end: 26 November 2019 00:00
Orbit: 485 x 680 km, 50.3° (Epoch: 16 November)

Date Brightness Start Highest point End Pass type
(mag) Time Alt. Az. Time Alt. Az. Time Alt. Az.
16 Nov - 00:37:00 10° SSW 00:39:56 18° SSE 00:42:46 10° ESE night (unlit)
16 Nov - 02:16:05 10° SW 02:19:37 25° S 02:22:59 10° ESE visible
16 Nov - 03:56:15 10° WSW 03:59:18 20° SSW 04:02:14 10° SSE visible
17 Nov - 00:41:22 10° SSW 00:44:39 21° SSE 00:47:49 10° ESE night (unlit)
17 Nov - 02:20:50 10° WSW 02:24:23 25° S 02:27:45 10° SE visible
17 Nov - 04:01:17 10° WSW 04:04:00 17° SSW 04:06:38 10° SSE visible
17 Nov - 23:07:51 10° S 23:09:51 13° SSE 23:11:47 10° ESE night (unlit)
18 Nov - 00:45:52 10° SW 00:49:24 24° SSE 00:52:45 10° ESE night (unlit)
18 Nov - 02:25:39 10° WSW 02:29:08 24° S 02:32:28 10° SE visible
18 Nov - 04:06:30 10° WSW 04:08:39 14° SSW 04:10:46 10° S visible
18 Nov - 23:11:43 10° SSW 23:14:29 16° SSE 23:17:11 10° ESE night (unlit)
19 Nov - 00:50:30 10° SW 00:54:09 25° S 00:57:37 10° ESE night (unlit)
19 Nov - 02:30:31 10° WSW 02:33:52 23° SSW 02:37:05 10° SE visible
19 Nov - 04:12:14 10° SW 04:13:16 11° SW 04:14:19 10° SSW visible
19 Nov - 23:15:56 10° SSW 23:19:11 20° SSE 23:22:18 10° ESE night (unlit)
20 Nov - 00:55:12 10° SW 00:58:54 26° S 01:02:25 10° ESE night (unlit)
20 Nov - 02:35:27 10° WSW 02:38:35 20° SSW 02:41:35 10° SSE visible
20 Nov - 21:43:06 10° SSE 21:44:25 11° SE 21:45:43 10° SE night (unlit)
20 Nov - 23:20:21 10° SW 23:23:54 23° SSE 23:27:18 10° ESE night (unlit)
21 Nov - 00:59:57 10° WSW 01:03:39 26° S 01:07:10 10° SE night (unlit)
21 Nov - 02:40:30 10° WSW 02:43:16 17° SSW 02:45:55 10° SSE visible
21 Nov - 21:46:32 10° S 21:49:03 15° SSE 21:51:29 10° ESE night (unlit)
21 Nov - 23:24:55 10° SW 23:28:38 25° S 23:32:12 10° ESE night (unlit)
22 Nov - 01:04:47 10° WSW 01:08:24 25° S 01:11:51 10° SE night (unlit)
22 Nov - 02:45:46 10° WSW 02:47:54 14° SSW 02:50:00 10° S visible
22 Nov - 21:50:34 10° SSW 21:53:42 18° SSE 21:56:44 10° ESE night (unlit)
22 Nov - 23:29:33 10° SW 23:33:23 27° S 23:37:02 10° ESE night (unlit)
23 Nov - 01:09:39 10° WSW 01:13:08 23° SSW 01:16:26 10° SE night (unlit)
23 Nov - 02:51:43 10° SW 02:52:30 10° SW 02:53:16 10° SSW visible
23 Nov - 21:54:53 10° SSW 21:58:24 21° SSE 22:01:46 10° ESE night (unlit)
23 Nov - 23:34:16 10° WSW 23:38:09 27° S 23:41:49 10° ESE night (unlit)
24 Nov - 01:14:37 10° WSW 01:17:50 20° SSW 01:20:54 10° SSE night (unlit)
24 Nov - 20:21:31 10° S 20:23:34 13° SSE 20:25:37 10° ESE night (unlit)
24 Nov - 21:59:21 10° SW 22:03:07 24° SSE 22:06:43 10° ESE night (unlit)
24 Nov - 23:39:04 10° WSW 23:42:54 27° S 23:46:32 10° SE night (unlit)
25 Nov - 01:19:42 10° WSW 01:22:30 17° SSW 01:25:11 10° SSE night (unlit)
25 Nov - 20:25:17 10° S 20:28:12 16° SSE 20:31:03 10° ESE night (unlit)
25 Nov - 22:03:56 10° SW 22:07:51 27° S 22:11:36 10° ESE night (unlit)
25 Nov - 23:43:54 10° WSW 23:47:38 25° SSW 23:51:11 10° SE night (unlit)
